www.pogodaiklimat.ru

Погода и климат >> Архив погоды >> Сейшелы >> Seychelles


АРХИВ ПОГОДЫ в Seychelles

Время (UTC), дата Ветер
(напр.,м/с)
 
Видим.   Явления Облачность Т
(С)
Тd
(С)
f
(%)
Тe
(С)
Тes
(С)
Комфортность P
(гПа)
Po
(гПа)
Тmin
(С)
Tmax
(С)
R
(мм)
R24
(мм)
S
(см)
00 10.08 Ю 4
{13}
30 км 9/4 540 м
[Cu Sc Ci sp]
+25.3 +22.0 82 +33 +33 очень
душно
1010.7 1011.0
03 10.08 ЮВ 6
{12}
35 км 9/5 540 м
[Cu Sc Ci sp]
+25.4 +22.0 81 +33 +33 очень
душно
1011.9 1012.0
06 10.08 ЮВ 6 40 км 9/4 540 м
[Cu Sc Ac trans Ci sp]
+27.5 +22.2 73 +36 +38 очень
душно
1013.0 1013.0 +25.2 0.0
09 10.08 ЮВ 5
{10}
40 км 9/4 540 м
[Cu Sc Ac trans Ci sp]
+28.0 +22.6 73 +37 +41 очень
душно
1011.6 1012.0
12 10.08 ЮВ 6
{11}
35 км 9/4 540 м
[Cu Sc Ac trans Ci sp]
+27.0 +21.5 72 +34 +35 очень
душно
1010.8 1011.0
15 10.08 Ю 4
{10}
35 км 9/1 540 м
[Cu Sc Ci sp]
+25.6 +22.4 83 +34 +34 очень
душно
1011.5 1012.0
18 10.08 Ю 4
{11}
35 км 9/4 500 м
[Cu Sc Ci sp]
+25.6 +22.4 83 +34 +34 очень
душно
1013.2 1013.0 +28.8
21 10.08 Ю 4
{7}
35 км 6/3 500 м
[Cu Sc Ac trans Ci sp]
+25.4 +22.5 84 +33 +33 очень
душно
1012.3 1012.0
00 11.08 Ю 3
{7}
35 км 5/3 540 м
[Cu Sc Ci sp]
+25.2 +22.6 86 +33 +33 очень
душно
1010.9 1011.0
03 11.08 Ю 4
{6}
35 км 9/1 540 м
[Cu Sc Ci]
+25.2 +22.1 83 +33 +33 очень
душно
1011.3 1011.0
06 11.08 Ю 7 35 км 9/3 540 м
[Cu Sc Ci sp]
+27.6 +22.9 76 +37 +39 очень
душно
1012.7 1013.0 +24.9
09 11.08 Ю 4
{7}
35 км 9/4 540 м
[Cu Sc Ci sp]
+28.3 +22.8 72 +38 +44 очень
душно
1011.2 1011.0
12 11.08 Ю 5
{11}
35 км 9/3 480 м
[Cu Sc Ac trans Ci sp]
+27.9 +22.3 72 +37 +38 очень
душно
1010.2 1010.0
15 11.08 Ю 3
{8}
35 км 9/3 540 м
[Cu Sc Ci sp]
+26.2 +22.5 80 +34 +34 очень
душно
1011.7 1012.0
18 11.08 Ю 4
{8}
35 км 9/4 540 м
[Cu Sc Ac trans Ci sp]
+25.8 +23.3 86 +35 +35 очень
душно
1013.1 1013.0 +29.2
21 11.08 ЮВ 3
{7}
35 км 9/1 540 м
[Cu hum Ci sp]
+25.2 +23.3 89 +34 +34 очень
душно
1012.2 1012.0
00 12.08 ЮВ 3
{6}
35 км 9/1 540 м
[Cu med, cong Cs]
+25.3 +22.5 84 +33 +33 очень
душно
1011.0 1011.0
03 12.08 ЮВ 5
{8}
35 км {ливн. осадки} 9/4 240 м
[Cu Sc Ac trans Ci sp]
+25.3 +23.3 89 +34 +34 очень
душно
1012.1 1012.0
06 12.08 ЮВ 5 35 км {ливн. осадки} 9/3 480 м
[Cu Sc Ac trans Ci sp]
+27.1 +23.6 81 +37 +40 очень
душно
1013.3 1013.0 +24.7 0.2
09 12.08 В 2
{8}
45 км 9/4 500 м
[Cu Sc Ac trans Ci sp]
+28.9 +23.6 73 +39 +47 очень
душно
1011.7 1012.0
12 12.08 ЮВ 4
{8}
40 км 9/4 480 м
[Cu Sc Ac trans Ci sp]
+28.4 +23.5 75 +39 +40 очень
душно
1010.2 1010.0
15 12.08 Ю 4
{8}
40 км 9/3 480 м
[Cu Sc Ac trans Ci sp]
+26.2 +23.0 83 +35 +35 очень
душно
1011.3 1011.0
18 12.08 Ю 5
{10}
40 км в посл. час ливневой дождь 9/3 540 м
[Cu Sc Ci sp]
+25.7 +23.1 86 +34 +34 очень
душно
1012.6 1013.0 +29.5
21 12.08 Ю 3
{9}
40 км 9/6 540 м
[Cu Sc Ac trans Ci sp]
+25.6 +23.6 89 +35 +35 очень
душно
1011.9 1012.0
00 13.08 Ю 4 40 км 9/5 540 м
[Cu Sc Ac trans Ci sp]
+25.5 +23.6 89 +35 +35 очень
душно
1011.0 1011.0
03 13.08 ЮВ 6 40 км 9/6 540 м
[Cu Sc Ac trans Ci sp]
+25.6 +23.8 90 +35 +35 очень
душно
1012.0 1012.0
06 13.08 ЮВ 7 40 км 8/3 500 м
[Cu Sc Ac trans Cc]
+27.7 +23.7 79 +38 +40 очень
душно
1013.5 1014.0 +25.3
09 13.08 ЮВ 6
{11}
35 км 9/8 480 м
[Cu Sc Ac trans Ci sp]
+27.0 +23.4 81 +37 +38 очень
душно
1012.0 1012.0
12 13.08 ЮВ 6
{11}
40 км 9/4 300 м
[Cu Sc Ac trans Ci sp]
+27.0 +23.5 81 +37 +37 очень
душно
1010.8 1011.0
15 13.08 ЮВ 6
{15}
30 км 9/5 300 м
[Cu Sc Ac trans Ci sp]
+26.3 +23.7 86 +36 +36 очень
душно
1012.1 1012.0
21 13.08 ЮВ 7
{14}
30 км 6/5 500 м
[Cu Sc Ac trans Ci sp]
+26.0 +23.2 85 +35 +35 очень
душно
1012.4 1012.0
00 14.08 ЮВ 7
{13}
30 км в посл. час ливневой дождь 9/8 270 м
[Cu Sc Ac trans Ci sp]
+25.5 +23.6 89 +35 +35 очень
душно
1011.7 1012.0
03 14.08 ЮВ 8 30 км {ливн. осадки} 8/6 210 м
[Cu Sc Ac trans Ci sp]
+25.2 +23.8 92 +34 +34 очень
душно
1012.6 1013.0
06 14.08 ЮВ 7
{15}
30 км слабый ливневой дождь 9/8 420 м
[Cb cap Ac trans Ci sp]
+24.4 +23.5 95 +33 +34 очень
душно
1014.0 1014.0 +24.6 1
09 14.08 ЮВ 4
{18}
30 км в посл. час ливневой дождь 6/5 420 м
[Cb cap Ac trans Ci sp]
+26.4 +24.1 87 +37 +42 очень
душно
1012.2 1012.0
12 14.08 ЮВ 7
{15}
40 км в посл. час ливневой дождь 9/6 420 м
[Cb cap Ac trans Ci sp]
+26.0 +23.7 87 +35 +36 очень
душно
1011.4 1011.0
15 14.08 Ю 4
{15}
40 км слабый ливневой дождь 9/5 270 м
[Cb cap Ac trans Ci ing]
+25.6 +23.6 89 +35 +35 очень
душно
1012.7 1013.0
18 14.08 Ю 4
{15}
30 км {ливн. осадки} 6/5 300 м
[Cb cap Ac trans Ci ing]
+25.5 +23.8 90 +35 +35 очень
душно
1013.1 1013.0 +28.3 2
21 14.08 ЮВ 5
{14}
30 км {ливн. осадки} 6/5 270 м
[Cb cap Ci ing]
+25.5 +23.6 89 +35 +35 очень
душно
1012.0 1012.0
00 15.08 Ю 4
{13}
20 км в посл. час ливневой дождь 6/4 240 м
[Cb cap Ci ing]
+25.0 +23.5 91 +34 +34 очень
душно
1011.0 1011.0
03 15.08 ЮВ 5
{9}
20 км в посл. час ливневой дождь 9/5 210 м
[Cb cap Ci ing]
+25.6 +23.7 89 +35 +35 очень
душно
1012.1 1012.0
06 15.08 ЮВ 5 30 км в посл. час ливневой дождь 9/5 270 м
[Cu Sc Ac trans Ci sp]
+27.1 +24.5 86 +38 +40 очень
душно
1013.3 1013.0 +24.7 5
09 15.08 ЮВ 6
{9}
30 км 8/4 480 м
[Cu Sc Ac trans Ci sp]
+28.4 +24.3 78 +40 +43 очень
душно
1011.5 1012.0
12 15.08 ЮВ 8
{11}
30 км 8/4 420 м
[Cb cap Ac trans Ci sp]
+27.8 +23.9 79 +38 +39 очень
душно
1011.1 1011.0
18 15.08 ЮВ 6
{8}
30 км 8/4 480 м
[Cu Sc Ac trans Ci sp]
+25.8 +23.1 85 +34 +34 очень
душно
1012.4 1012.0 +28.7 0.1
21 15.08 Ю 4 30 км 8/4 500 м
[Cu Sc Ac trans Ci sp]
+25.5 +23.8 90 +35 +35 очень
душно
1011.3 1011.0
00 16.08 Ю 3 30 км 8/6 480 м
[Cu Sc Ci sp]
+25.5 +24.2 93 +35 +35 очень
душно
1010.1 1010.0
03 16.08 ЮВ 3
{8}
35 км {ливн. осадки} 9/6 480 м
[Cb cap Ci sp]
+25.8 +24.1 90 +36 +36 очень
душно
1011.2 1011.0
06 16.08 ЮВ 6 20 км слабый ливневой дождь 9/5 270 м
[Cb cap Ac trans Ci sp]
+27.0 +24.1 84 +37 +39 очень
душно
1012.2 1012.0 +25.4 0.2
09 16.08 ЮВ 4
{10}
30 км {ливн. осадки} 9/6 400 м
[Cb cap Ac trans Ci ing]
+28.1 +25.1 84 +41 +44 опасность
перегрева
1010.6 1011.0
12 16.08 В 3
{10}
35 км {ливн. осадки} 6/4 400 м
[Cb cap Ci ing]
+28.3 +24.5 80 +40 +43 очень
душно
1009.4 1009.0
15 16.08 Ю 3
{6}
8000 м 9/6 240 м
[Cb cap Ci ing]
+26.3 +24.6 90 +37 +37 очень
душно
1010.8 1011.0
18 16.08 В 5 5000 м слабый ливневой дождь 9/8 240 м
[Cb cap Ci ing]
+24.6 +23.9 96 +34 +34 очень
душно
1012.4 1012.0 +28.8 3
21 16.08 Ю 3
{9}
20 км {ливн. осадки} 8/4 400 м
[Cb cap Ci ing]
+25.3 +24.1 93 +35 +35 очень
душно
1010.9 1011.0

 

Местоположение метеостанции Seychelles (Сейшелы): широта -4.67 долгота 55.52 высота над уровнем моря 3 м.

В архиве по умолчанию представлена погода в Seychelles за последнюю неделю. Архивные данные за месяц целиком и за предыдущие месяцы, начиная с января 2011 года, Вы можете получить, выбрав интересующий диапазон дат из раскрывающегося списка и нажав кнопку "Ввод!".

Внимание! Время в таблицах - всемирное. Для получения местного времени необходимо прибавить поправку, которая в Seychelles равна 4 ч.

Смотрите также архив погоды в соседних городах и на ближайших метеорологических станциях:

Погода в Agalega (Маврикий) (655 км)
Погода в Antsiranana (Мадагаскар) (1094 км)
Погода в Iles Glorieuses (Реюньон) (1190 км)
Погода в Sambava (Мадагаскар) (1219 км)
Погода в Serge-Frolow (Реюньон) (1243 км)
Погода в Fascene (Мадагаскар) (1244 км)
Погода в Antalaha (Мадагаскар) (1274 км)
Погода в Mogadiscio (Сомали) (1354 км)
Погода в Saint Brandon Saint Raphael (Маврикий) (1385 км)
Погода в Antsohihy (Мадагаскар) (1404 км)

Пояснения к столбцам:

Ветер - указаны скорость ветра в м/с - средняя за 10 мин, порывы в срок и между сроками (в фигурных скобках) и направление, откуда дует ветер: С - северный, СВ - северо-восточный, В - восточный, ЮВ - юго-восточный, Ю - южный, ЮЗ - юго-западный, З - западный, СЗ - северо-западный.
Видимость - горизонтальная дальность видимости в метрах или километрах. При видимости от 1 до 10 км при отсутствии осадков обычно наблюдается дымка, при ухудшении видимости до 1 км и менее - туман. В сухую погоду видимость может ухудшаться дымом, пылью или мглою.
Явления - указаны атмосферные явления, наблюдавшиеся в срок или в последний час перед сроком; фигурными скобками обозначены явления, наблюдавшиеся между сроками (за 1-3 часа до срока); квадратными скобками обозначены град или гололедные отложения с указанием их диаметра в мм.
Облачность - указаны через наклонную черту общая и нижняя облачность в баллах и высота нижней границы облаков в метрах; квадратными скобками обозначены формы облаков: Ci - перистые, Cs - перисто-слоистые, Cc - перисто-кучевые, Ac - высококучевые, As - высокослоистые, Sc - слоисто-кучевые, Ns - слоисто-дождевые, Cu - кучевые, Cb - кучево-дождевые. Подробнее классификацию облаков см. в Атласе облаков (PDF).
T - Температура воздуха - температура, измеренная на высоте 2 м над землей.
Td - Температура точки росы - температура, при понижении до которой содержащийся в воздухе водяной пар достигнет насыщения.
f - Относительная влажность воздуха - влажноcть воздуха, измеренная на высоте 2 м над землей.
Te - Эффективная температура - температура, которую ощущает одетый по сезону человек в тени. Характеристика душности погоды. При расчете учитывается влияние влажности воздуха и скорости ветра на теплоощущения человека.
Tes - Эффективная температура на солнце - температура, которую ощущает человек, с поправкой на солнечный нагрев. Характеристика знойности погоды. Зависит от высоты солнца над горизонтом, облачности и скорости ветра. Ночью, в пасмурную погоду, а также при ветре 12 м/с и более поправка равна нулю.
P - Атмосферное давление - приведенное к уровню моря атмосферное давление.
Po - Атмосферное давление - измеренное на уровне метеостанции атмосферное давление.
Tmin - Минимальная температура - минимум температуры воздуха на высоте 2 м над землей.
Tmax - Максимальная температура - максимум температуры воздуха на высоте 2 м над землей.
R - Количество осадков - Количество выпавших осадков за период времени, мм. При наведении курсора мыши на число - период времени, за который выпало указанное количество осадков.
R24 - Количество осадков - Количество выпавших осадков за 24 часа, мм.
S - Снежный покров - Высота снежного покрова, см. При наведении курсора мыши на число - состояние снежного покрова и степень покрытия местности в баллах.